Malaga, Spain

2:21 PM CEST on October 23, 2017 (GMT +0200)
Malaga

Weather History for LEMG - December, 2013

Change the Weather History Date:

Thursday, December 26, 2013

  Actual Average Record
Temperature  
Mean Temperature 58 °F -  
Max Temperature 63 °F 59 °F 69 °F (2002)
Min Temperature 53 °F 43 °F 41 °F (2014)
Degree Days  
Heating Degree Days 7    
Growing Degree Days 8 (Base 50)    
Moisture  
Dew Point 42 °F    
Average Humidity 55    
Maximum Humidity 67    
Minimum Humidity 30    
Precipitation  
Precipitation 0.00 in 0.11 in - ()
Sea Level Pressure  
Sea Level Pressure 30.09 in    
Wind  
Wind Speed 10 mph ()    
Max Wind Speed 24 mph    
Max Gust Speed 40 mph    
Visibility 6.6 miles    
Events      
Averages and records for this station are not official NWS values.
T = Trace of Precipitation, MM = Missing Value Source: Averaged Metar Reports

Daily Weather History Graph

Daily Weather History Graph

Search for Another Location

Airport or City:

Trip Planner

Search our weather history database for the weather conditions in past years. The results will help you decide how hot, cold, wet, or windy it might be!

Date:

Astronomy

Dec. 26, 2013 Rise Set
Actual Time 8:28 AM CET 6:08 PM CET
Civil Twilight 7:59 AM CET 6:37 PM CET
Nautical Twilight 7:27 AM CET 7:09 PM CET
Astronomical Twilight 6:55 AM CET 7:41 PM CET
Moon 1:50 AM CET (12/26) 1:29 PM CET (12/26)
Length of Visible Light 10h 37m
Length of Day
9h 39m
Last Quarter, 41% of the Moon is Illuminated
Dec 26
Last Quarter
Jan 1
New
Jan 8
First Quarter
Jan 16
Full
Jan 24
Last Quarter

Hourly Weather History & Observations

Time (CET) Temp. Dew Point Humidity Pressure Visibility Wind Dir Wind Speed Gust Speed Precip Events Conditions
12:00 AM 55 °F 41 °F 49% 29.95 in - NW 9.2 mph - -  
12:00 AM 53.6 °F 42.8 °F 67% 29.95 in 6.2 mi NW 9.2 mph - N/A   Partly Cloudy
12:30 AM 53.6 °F 41.0 °F 62% 29.95 in 6.2 mi WNW 10.4 mph 26.5 mph N/A   Scattered Clouds
1:00 AM 55 °F 40 °F 46% 29.96 in - WNW 13.8 mph - -  
1:30 AM 55.4 °F 41.0 °F 58% 29.95 in 6.2 mi WNW 11.5 mph - N/A   Scattered Clouds
2:00 AM 55 °F 40 °F 46% 29.97 in - NW 8.1 mph - -  
2:00 AM 51.8 °F 41.0 °F 67% 29.95 in 6.2 mi NW 5.8 mph - N/A   Scattered Clouds
2:30 AM 53.6 °F 41.0 °F 62% 29.98 in 6.2 mi NW 10.4 mph - N/A   Scattered Clouds
3:00 AM 55 °F 39 °F 44% 29.99 in - NW 6.9 mph - -  
3:00 AM 51.8 °F 41.0 °F 67% 29.98 in 6.2 mi NW 6.9 mph - N/A   Scattered Clouds
3:30 AM 53.6 °F 41.0 °F 62% 29.98 in 6.2 mi NW 8.1 mph - N/A   Scattered Clouds
4:00 AM 56 °F 41 °F 47% 30.00 in 9 mi NW 8.1 mph - -   Mostly Cloudy
4:00 AM 53.6 °F 42.8 °F 67% 29.98 in 6.2 mi NW 6.9 mph - N/A   Scattered Clouds
5:00 AM 55 °F 42 °F 52% 30.01 in - WNW 6.9 mph - -  
5:00 AM 53.6 °F 42.8 °F 67% 30.01 in 6.2 mi WNW 4.6 mph - N/A   Scattered Clouds
5:30 AM 53.6 °F 42.8 °F 67% 30.01 in 6.2 mi WNW 3.5 mph - N/A   Scattered Clouds
6:00 AM 55 °F 42 °F 51% 30.03 in - West 5.8 mph - -  
6:00 AM 55.4 °F 42.8 °F 63% 30.01 in 6.2 mi West 4.6 mph - N/A   Scattered Clouds
6:30 AM 55.4 °F 41.0 °F 58% 30.01 in 6.2 mi WNW 9.2 mph - N/A   Scattered Clouds
7:00 AM 55 °F 41 °F 48% 30.05 in 12 mi WNW 8.1 mph - -   Partly Cloudy
7:00 AM 55.4 °F 41.0 °F 58% 30.04 in 6.2 mi WNW 6.9 mph - N/A   Scattered Clouds
7:30 AM 55.4 °F 41.0 °F 58% 30.04 in 6.2 mi West 3.5 mph - N/A   Scattered Clouds
8:00 AM 56 °F 42 °F 48% 30.07 in - WSW 4.6 mph - -  
8:00 AM 55.4 °F 41.0 °F 58% 30.06 in 6.2 mi Variable 2.3 mph - N/A   Scattered Clouds
8:30 AM 53.6 °F 42.8 °F 67% 30.06 in 6.2 mi Variable 2.3 mph - N/A   Mostly Cloudy
9:00 AM 56 °F 42 °F 48% 30.09 in - WNW 10.4 mph - -  
9:00 AM 53.6 °F 42.8 °F 67% 30.06 in 6.2 mi WNW 9.2 mph - N/A   Mostly Cloudy
9:30 AM 53.6 °F 42.8 °F 67% 30.09 in 6.2 mi NW 10.4 mph - N/A   Mostly Cloudy
10:00 AM 56 °F 43 °F 50% 30.11 in 25 mi WNW 11.5 mph - -   Partly Cloudy
10:00 AM 53.6 °F 42.8 °F 67% 30.09 in 6.2 mi NW 11.5 mph - N/A   Scattered Clouds
10:30 AM 57.2 °F 44.6 °F 63% 30.12 in 6.2 mi NW 12.7 mph - N/A   Scattered Clouds
11:00 AM 59 °F 44 °F 47% 30.13 in - WNW 15.0 mph - -  
11:00 AM 57.2 °F 44.6 °F 63% 30.12 in 6.2 mi NW 13.8 mph 25.3 mph N/A   Partly Cloudy
11:30 AM 59.0 °F 42.8 °F 55% 30.12 in 6.2 mi WNW 16.1 mph 27.6 mph N/A   Partly Cloudy
12:00 PM 61 °F 42 °F 38% 30.14 in - WNW 13.8 mph - -  
12:00 PM 59.0 °F 44.6 °F 59% 30.12 in 6.2 mi WNW 13.8 mph - N/A   Partly Cloudy
12:30 PM 59.0 °F 42.8 °F 55% 30.12 in 6.2 mi NW 17.3 mph 29.9 mph N/A   Partly Cloudy
1:00 PM 62 °F 41 °F 34% 30.12 in 25 mi WNW 21.9 mph - -   Partly Cloudy
1:00 PM 60.8 °F 42.8 °F 52% 30.09 in 6.2 mi WNW 21.9 mph 35.7 mph N/A   Partly Cloudy
1:30 PM 60.8 °F 42.8 °F 52% 30.09 in 6.2 mi WNW 24.2 mph 40.3 mph N/A   Partly Cloudy
2:00 PM 62 °F 40 °F 33% 30.11 in - NW 20.7 mph - -  
2:00 PM 60.8 °F 42.8 °F 52% 30.09 in 6.2 mi NW 19.6 mph 33.4 mph N/A   Partly Cloudy
2:30 PM 60.8 °F 41.0 °F 48% 30.09 in 6.2 mi WNW 19.6 mph 35.7 mph N/A   Partly Cloudy
3:00 PM 63 °F 39 °F 30% 30.11 in - WNW 18.4 mph - -  
3:00 PM 60.8 °F 41.0 °F 48% 30.09 in 6.2 mi WNW 18.4 mph 29.9 mph N/A   Partly Cloudy
3:30 PM 60.8 °F 41.0 °F 48% 30.09 in 6.2 mi WNW 19.6 mph 31.1 mph N/A   Partly Cloudy
4:00 PM 62 °F 40 °F 32% 30.12 in 22 mi NW 17.3 mph - -   Partly Cloudy
4:00 PM 60.8 °F 41.0 °F 48% 30.09 in 6.2 mi NW 16.1 mph - N/A   Scattered Clouds
4:30 PM 60.8 °F 41.0 °F 48% 30.09 in 6.2 mi WNW 17.3 mph 28.8 mph N/A   Scattered Clouds
5:00 PM 62 °F 41 °F 34% 30.13 in - WNW 13.8 mph - -  
5:00 PM 59.0 °F 42.8 °F 55% 30.12 in 6.2 mi WNW 12.7 mph - N/A   Scattered Clouds
5:30 PM 59.0 °F 42.8 °F 55% 30.12 in 6.2 mi WNW 12.7 mph - N/A   Scattered Clouds
6:00 PM 59 °F 43 °F 43% 30.15 in - WNW 17.3 mph - -  
6:00 PM 57.2 °F 42.8 °F 59% 30.12 in 6.2 mi WNW 16.1 mph 27.6 mph N/A   Scattered Clouds
6:30 PM 57.2 °F 42.8 °F 59% 30.15 in 6.2 mi WNW 16.1 mph - N/A   Scattered Clouds
7:00 PM 59 °F 43 °F 44% 30.16 in 12 mi WNW 18.4 mph - -   Partly Cloudy
7:00 PM 57.2 °F 42.8 °F 59% 30.15 in 6.2 mi WNW 17.3 mph - N/A   Scattered Clouds
7:30 PM 57.2 °F 44.6 °F 63% 30.15 in 6.2 mi WNW 15.0 mph - N/A   Scattered Clouds
8:00 PM 58 °F 43 °F 47% 30.19 in - WNW 8.1 mph - -  
8:00 PM 57.2 °F 44.6 °F 63% 30.18 in 6.2 mi WNW 10.4 mph - N/A   Scattered Clouds
8:30 PM 57.2 °F 44.6 °F 63% 30.18 in 6.2 mi NW 4.6 mph - N/A   Scattered Clouds
9:00 PM 58 °F 44 °F 49% 30.21 in - WNW 5.8 mph - -  
9:00 PM 57.2 °F 44.6 °F 63% 30.18 in 6.2 mi WNW 4.6 mph - N/A   Scattered Clouds
9:30 PM 55.4 °F 44.6 °F 67% 30.21 in 6.2 mi NW 5.8 mph - N/A   Scattered Clouds
10:00 PM 58 °F 44 °F 50% 30.22 in 12 mi WNW 8.1 mph - -   Mostly Cloudy
10:00 PM 55.4 °F 44.6 °F 67% 30.21 in 6.2 mi NW 6.9 mph - N/A   Mostly Cloudy
10:30 PM 55.4 °F 44.6 °F 67% 30.21 in 6.2 mi WNW 4.6 mph - N/A   Mostly Cloudy
11:00 PM 58 °F 45 °F 51% 30.22 in - NW 9.2 mph - -  
11:00 PM 55.4 °F 44.6 °F 67% 30.21 in 6.2 mi NW 8.1 mph - N/A   Mostly Cloudy
11:30 PM 55.4 °F 44.6 °F 67% 30.21 in 6.2 mi West 6.9 mph - N/A   Mostly Cloudy